Surface/Precipitation History
12/18/2014 03:48  to  12/19/2014 03:48
Change End Date:
Date/Time
(MST)
Sf
Temp Chem Water Layer Surface Precipitation
Sf Sub Frz Factor Pct Depth IcePct Cond Salin Type Intens Accum Rate
12/19/2014 03:47 Ice Watch 27.3F - - 45 - - - 1 mhos 0 None None - -
12/19/2014 03:43 Ice Watch 27.3F - - 40 - - - 1 mhos 0 None None - -
12/19/2014 03:33 Ice Watch 27.1F - - 40 - - - 1 mhos 0 None None - -
12/19/2014 03:23 Ice Watch 27.0F - - 45 - - - 1 mhos 0 None None - -
12/19/2014 03:13 Ice Watch 26.8F - - 40 - - - 1 mhos 0 None None - -
12/19/2014 03:03 Ice Watch 27.0F - - 40 - - - 1 mhos 0 None None - -
12/19/2014 02:53 Ice Watch 26.8F - - 40 - - - 1 mhos 0 None None - -
12/19/2014 02:50 Ice Watch 26.8F - - 40 - - - 1 mhos 0 None None - -
12/19/2014 02:43 Ice Watch 27.0F - - 40 - - - 1 mhos 0 None None - -
12/19/2014 02:33 Ice Watch 26.8F - - 40 - - - 1 mhos 0 None None - -
12/19/2014 02:23 Ice Watch 26.8F - - 45 - - - 1 mhos 0 None None - -
12/19/2014 02:13 Ice Watch 26.2F - - 55 - - - 1 mhos 0 None None - -
12/19/2014 02:03 Ice Watch 25.7F - - 40 - - - 1 mhos 0 None None - -
12/19/2014 01:53 Ice Watch 25.3F - - 40 - - - 1 mhos 0 None None - -
12/19/2014 01:46 Ice Watch 25.0F - - 45 - - - 1 mhos 0 None None - -
Date/Time
(MST)
Sf
Temp Chem Water Layer Surface Precipitation
Sf Sub Frz Factor Pct Depth IcePct Cond Salin Type Intens Accum Rate
12/19/2014 01:43 Ice Watch 24.8F - - 45 - - - 1 mhos 0 None None - -
12/19/2014 01:33 Ice Watch 24.4F - - 45 - - - 1 mhos 0 None None - -
12/19/2014 01:23 Ice Watch 24.1F - - 40 - - - 1 mhos 0 None None - -
12/19/2014 01:16 Ice Watch 24.3F - - 45 - - - 1 mhos 0 None None - -
12/19/2014 01:13 Ice Watch 24.3F - - 45 - - - 1 mhos 0 None None - -
12/19/2014 01:03 Ice Watch 24.6F - - 45 - - - 0 mhos 0 None None - -
12/19/2014 00:53 Ice Watch 24.6F - - 45 - - - 0 mhos 0 None None - -
12/19/2014 00:50 Ice Watch 24.8F - - 45 - - - 0 mhos 0 None None - -
12/19/2014 00:43 Ice Watch 25.3F - - 45 - - - 0 mhos 0 None None - -
12/19/2014 00:33 Ice Watch 25.9F - - 45 - - - 0 mhos 0 None None - -
12/19/2014 00:23 Ice Watch 25.3F - - 60 - - - 0 mhos 0 None None - -
12/19/2014 00:13 Ice Watch 24.8F - - 55 - - - 0 mhos 0 None None - -
12/19/2014 00:03 Ice Watch 25.2F - - 70 - - - 0 mhos 0 None None - -
12/18/2014 23:53 Ice Watch 25.2F - - 55 - - - 0 mhos 0 None None - -
12/18/2014 23:43 Ice Watch 25.5F - - 60 - - - 0 mhos 0 None None - -
Date/Time
(MST)
Sf
Temp Chem Water Layer Surface Precipitation
Sf Sub Frz Factor Pct Depth IcePct Cond Salin Type Intens Accum Rate
12/18/2014 23:32 Ice Watch 25.7F - - 60 - - - 0 mhos 0 None None - -
12/18/2014 23:22 Ice Watch 26.2F - - 60 - - - 0 mhos 0 None None - -
12/18/2014 23:12 Ice Watch 26.8F - - 55 - - - 0 mhos 0 None None - -
12/18/2014 23:02 Ice Watch 26.8F - - 55 - - - 0 mhos 0 None None - -
12/18/2014 22:52 Ice Watch 27.3F - - 60 - - - 0 mhos 0 None None - -
12/18/2014 22:46 Ice Watch 27.1F - - 55 - - - 0 mhos 0 None None - -
12/18/2014 22:42 Ice Watch 27.1F - - 65 - - - 0 mhos 0 None None - -
12/18/2014 22:32 Ice Watch 26.4F - - 60 - - - 0 mhos 0 None None - -
12/18/2014 22:22 Ice Watch 26.8F - - 60 - - - 0 mhos 0 None None - -
12/18/2014 22:16 Ice Watch 27.3F - - 60 - - - 0 mhos 0 None None - -
12/18/2014 22:12 Ice Watch 27.3F - - 60 - - - 0 mhos 0 None None - -
12/18/2014 22:02 Ice Watch 27.0F - - 60 - - - 0 mhos 0 None None - -
12/18/2014 22:00 Ice Watch 26.8F - - 60 - - - 0 mhos 0 None None - -
12/18/2014 21:52 Ice Watch 27.1F - - 60 - - - 0 mhos 0 None None - -
12/18/2014 21:44 Ice Watch 27.9F - - 60 - - - 0 mhos 0 None None - -
Date/Time
(MST)
Sf
Temp Chem Water Layer Surface Precipitation
Sf Sub Frz Factor Pct Depth IcePct Cond Salin Type Intens Accum Rate
12/18/2014 21:42 Ice Watch 27.7F - - 55 - - - 0 mhos 0 None None - -
12/18/2014 21:32 Ice Watch 27.5F - - 60 - - - 0 mhos 0 None None - -
12/18/2014 21:23 Ice Watch 27.5F - - 55 - - - 0 mhos 0 None None - -
12/18/2014 21:22 Ice Watch 27.5F - - 55 - - - 0 mhos 0 None None - -
12/18/2014 21:13 Ice Watch 28.4F - - 55 - - - 0 mhos 0 None None - -
12/18/2014 21:12 Ice Watch 28.2F - - 55 - - - 0 mhos 0 None None - -
12/18/2014 21:02 Ice Watch 28.8F - - 70 - - - 0 mhos 0 None None - -
12/18/2014 20:52 Ice Watch 28.8F - - 75 - - - 0 mhos 0 None None - -
12/18/2014 20:42 Ice Watch 28.6F - - 75 - - - 0 mhos 0 None None - -
12/18/2014 20:32 Ice Watch 28.4F - - 75 - - - 0 mhos 0 None None - -
12/18/2014 20:22 Ice Watch 28.4F - - 80 - - - 0 mhos 0 None None - -
12/18/2014 20:16 Ice Watch 28.0F - - 75 - - - 0 mhos 0 None None - -
12/18/2014 20:12 Ice Watch 27.9F - - 80 - - - 0 mhos 0 None None - -
12/18/2014 20:02 Ice Watch 28.4F - - 70 - - - 0 mhos 0 None None - -
12/18/2014 19:52 Ice Watch 28.4F - - 60 - - - 0 mhos 0 None None - -
Date/Time
(MST)
Sf
Temp Chem Water Layer Surface Precipitation
Sf Sub Frz Factor Pct Depth IcePct Cond Salin Type Intens Accum Rate
12/18/2014 19:49 Ice Watch 28.4F - - 60 - - - 0 mhos 0 None None - -
12/18/2014 19:42 Ice Watch 28.0F - - 45 - - - 0 mhos 0 None None - -
12/18/2014 19:32 Ice Watch 28.9F - - 40 - - - 0 mhos 0 None None - -
12/18/2014 19:22 Ice Watch 29.7F - - 35 - - - 0 mhos 0 None None - -
12/18/2014 19:16 Ice Watch 29.5F - - 40 - - - 0 mhos 0 None None - -
12/18/2014 19:12 Ice Watch 29.5F - - 40 - - - 0 mhos 0 None None - -
12/18/2014 19:01 Ice Watch 29.5F - - 30 - - - 0 mhos 0 None None - -
12/18/2014 18:51 Ice Watch 29.5F - - 25 - - - 0 mhos 0 None None - -
12/18/2014 18:49 Ice Watch 29.5F - - 30 - - - 0 mhos 0 None None - -
12/18/2014 18:41 Ice Watch 29.5F - - 30 - - - 0 mhos 0 None None - -
12/18/2014 18:31 Ice Watch 29.3F - - 35 - - - 0 mhos 0 None None - -
12/18/2014 18:21 Ice Watch 29.1F - - 25 - - - 0 mhos 0 None None - -
12/18/2014 18:18 Ice Watch 29.1F - - 30 - - - 0 mhos 0 None None - -
12/18/2014 18:11 Ice Watch 28.8F - - 25 - - - 0 mhos 0 None None - -
12/18/2014 18:01 Ice Watch 28.6F - - 25 - - - 0 mhos 0 None None - -
Date/Time
(MST)
Sf
Temp Chem Water Layer Surface Precipitation
Sf Sub Frz Factor Pct Depth IcePct Cond Salin Type Intens Accum Rate
12/18/2014 17:51 Ice Watch 28.0F - - 25 - - - 0 mhos 0 None None - -
12/18/2014 17:49 Ice Watch 28.0F - - 25 - - - 0 mhos 0 None None - -
12/18/2014 17:41 Ice Watch 27.9F - - 20 - - - 0 mhos 0 None None - -
12/18/2014 17:31 Ice Watch 27.7F - - 15 - - - 0 mhos 0 None None - -
12/18/2014 17:30 Ice Watch 27.7F - - 15 - - - 0 mhos 0 None None - -
12/18/2014 17:21 Ice Watch 27.9F - - 10 - - - 0 mhos 0 None None - -
12/18/2014 17:12 Ice Watch 28.6F - - 5 - - - 0 mhos 0 None None - -
12/18/2014 17:11 Ice Watch 28.8F - - 5 - - - 0 mhos 0 None None - -
12/18/2014 17:01 Ice Watch 28.9F - - 5 - - - 0 mhos 0 None None - -
12/18/2014 16:51 Ice Watch 29.3F - - 5 - - - 0 mhos 0 None None - -
12/18/2014 16:44 Ice Watch 29.7F - - 5 - - - 0 mhos 0 None None - -
12/18/2014 16:41 Ice Watch 29.8F - - 5 - - - 0 mhos 0 None None - -
12/18/2014 16:31 Ice Watch 30.7F - - 5 - - - 0 mhos 0 None None - -
12/18/2014 16:23 Dry 31.5F - - - - - - 0 mhos 0 None None - -
12/18/2014 16:21 Dry 31.6F - - - - - - 0 mhos 0 None None - -
Date/Time
(MST)
Sf
Temp Chem Water Layer Surface Precipitation
Sf Sub Frz Factor Pct Depth IcePct Cond Salin Type Intens Accum Rate
12/18/2014 16:11 Dry 32.9F - - - - - - 0 mhos 0 None None - -
12/18/2014 16:11 Dry 33.1F - - - - - - 0 mhos 0 None None - -
12/18/2014 16:01 Dry 34.3F - - - - - - 0 mhos 0 None None - -
12/18/2014 15:55 Dry 34.3F - - - - - - 0 mhos 0 None None - -
12/18/2014 15:51 Dry 34.3F - - - - - - 0 mhos 0 None None - -
12/18/2014 15:44 Dry 34.7F - - - - - - 0 mhos 0 None None - -
12/18/2014 15:41 Dry 34.9F - - - - - - 0 mhos 0 None None - -
12/18/2014 15:31 Dry 35.6F - - - - - - 0 mhos 0 None None - -
12/18/2014 15:25 Dry 36.7F - - - - - - 0 mhos 0 None None - -
12/18/2014 15:21 Dry 37.6F - - - - - - 0 mhos 0 None None - -
12/18/2014 15:13 Dry 39.4F - - - - - - 0 mhos 0 None None - -
12/18/2014 15:11 Dry 39.9F - - - - - - 0 mhos 0 None None - -
12/18/2014 15:01 Dry 41.7F - - - - - - 0 mhos 0 None None - -
12/18/2014 14:58 Dry 42.4F - - - - - - 0 mhos 0 None None - -
12/18/2014 14:51 Dry 43.3F - - - - - - 0 mhos 0 None None - -
Date/Time
(MST)
Sf
Temp Chem Water Layer Surface Precipitation
Sf Sub Frz Factor Pct Depth IcePct Cond Salin Type Intens Accum Rate
12/18/2014 14:42 Dry 45.7F - - - - - - 0 mhos 0 None None - -
12/18/2014 14:41 Dry 46.0F - - - - - - 0 mhos 0 None None - -
12/18/2014 14:31 Dry 47.5F - - - - - - 0 mhos 0 None None - -
12/18/2014 14:23 Dry 48.0F - - - - - - 0 mhos 0 None None - -
12/18/2014 14:20 Dry 48.2F - - - - - - 0 mhos 0 None None - -
12/18/2014 14:13 Dry 48.6F - - - - - - 0 mhos 0 None None - -
12/18/2014 14:10 Dry 48.4F - - - - - - 0 mhos 0 None None - -
12/18/2014 14:00 Dry 48.4F - - - - - - 0 mhos 0 None None - -
12/18/2014 13:53 Dry 46.8F - - - - - - 0 mhos 0 None None - -
12/18/2014 13:50 Dry 46.4F - - - - - - 0 mhos 0 None None - -
12/18/2014 13:41 Dry 45.5F - - - - - - 0 mhos 0 None None - -
12/18/2014 13:40 Dry 45.3F - - - - - - 0 mhos 0 None None - -
12/18/2014 13:30 Dry 46.6F - - - - - - 0 mhos 0 None None - -
12/18/2014 13:26 Dry 44.8F - - - - - - 0 mhos 0 None None - -
12/18/2014 13:20 Dry 43.3F - - - - - - 0 mhos 0 None None - -
Date/Time
(MST)
Sf
Temp Chem Water Layer Surface Precipitation
Sf Sub Frz Factor Pct Depth IcePct Cond Salin Type Intens Accum Rate
12/18/2014 13:11 Dry 43.3F - - - - - - 0 mhos 0 None None - -
12/18/2014 13:10 Dry 43.7F - - - - - - 0 mhos 0 None None - -
12/18/2014 13:00 Dry 43.2F - - - - - - 0 mhos 0 None None - -
12/18/2014 12:53 Dry 43.0F - - - - - - 0 mhos 0 None None - -
12/18/2014 12:50 Dry 43.0F - - - - - - 0 mhos 0 None None - -
12/18/2014 12:44 Dry 44.1F - - - - - - 0 mhos 0 None None - -
12/18/2014 12:40 Dry 45.0F - - - - - - 0 mhos 0 None None - -
12/18/2014 12:30 Dry 48.9F - - - - - - 0 mhos 0 None None - -
12/18/2014 12:22 Dry 48.7F - - - - - - 0 mhos 0 None None - -
12/18/2014 12:20 Dry 48.4F - - - - - - 0 mhos 0 None None - -
12/18/2014 12:11 Dry 46.4F - - - - - - 0 mhos 0 None None - -
12/18/2014 12:10 Dry 46.4F - - - - - - 0 mhos 0 None None - -
12/18/2014 12:00 Dry 43.7F - - - - - - 0 mhos 0 None None - -
12/18/2014 11:56 Dry 42.3F - - - - - - 0 mhos 0 None None - -
12/18/2014 11:50 Dry 41.9F - - - - - - 0 mhos 0 None None - -
Date/Time
(MST)
Sf
Temp Chem Water Layer Surface Precipitation
Sf Sub Frz Factor Pct Depth IcePct Cond Salin Type Intens Accum Rate
12/18/2014 11:44 Dry 39.7F - - - - - - 0 mhos 0 None None - -
12/18/2014 11:40 Dry 38.1F - - - - - - 0 mhos 0 None None - -
12/18/2014 11:30 Dry 36.3F - - - - - - 0 mhos 0 None None - -
12/18/2014 11:23 Dry 36.1F - - - - - - 1 mhos 0 None None - -
12/18/2014 11:20 Dry 36.0F - - - - - - 1 mhos 0 None None - -
12/18/2014 11:15 Dry 36.7F - - - - - - 1 mhos 0 None None - -
12/18/2014 11:10 Dry 35.4F - - - - - - 1 mhos 0 None None - -
12/18/2014 11:00 Dry 35.1F - - - - - - 1 mhos 0 None None - -
12/18/2014 10:53 Dry 34.5F - - - - - - 1 mhos 0 None None - -
12/18/2014 10:50 Dry 34.3F - - - - - - 1 mhos 0 None None - -
12/18/2014 10:43 Wet 33.1F - 32F 5 0% 0.00 in 0% 1 mhos 0 None None - -
12/18/2014 10:40 Wet 32.9F - 32F 5 0% 0.00 in 0% 1 mhos 0 None None - -
12/18/2014 10:30 Wet 32.2F - 32F 5 0% 0.00 in 0% 1 mhos 0 None None - -
12/18/2014 10:20 Wet 32.4F - 32F 55 0% 0.00 in 0% 1 mhos 0 None None - -
12/18/2014 10:16 Ice Warning 31.8F - 32F 55 0% - 100% 1 mhos 0 None None - -
Date/Time
(MST)
Sf
Temp Chem Water Layer Surface Precipitation
Sf Sub Frz Factor Pct Depth IcePct Cond Salin Type Intens Accum Rate
12/18/2014 10:10 Ice Warning 30.6F - 32F 70 0% - 100% 1 mhos 0 None None - -
12/18/2014 10:00 Ice Warning 29.7F - 32F 75 0% - 100% 1 mhos 0 None None - -
12/18/2014 09:55 Ice Warning 29.5F - 32F 75 0% - 100% 1 mhos 0 None None - -
12/18/2014 09:49 Ice Warning 29.3F - 32F 70 0% - 100% 1 mhos 0 None None - -
12/18/2014 09:43 Ice Warning 28.9F - 32F 70 0% - 100% 1 mhos 0 None None - -
12/18/2014 09:39 Ice Warning 28.8F - 32F 70 0% - 100% 2 mhos 0 None None - -
12/18/2014 09:31 Ice Warning 28.6F - 32F 75 0% - 100% 2 mhos 0 None None - -
12/18/2014 09:29 Ice Warning 28.8F - 32F 75 0% - 100% 2 mhos 0 None None - -
12/18/2014 09:19 Ice Warning 28.6F - 32F 80 0% - 100% 2 mhos 0 None None - -
12/18/2014 09:14 Ice Warning 28.0F - 32F 75 0% - 100% 2 mhos 0 None None - -
12/18/2014 09:09 Ice Warning 27.0F - 32F 80 0% - 100% 2 mhos 0 None None - -
12/18/2014 08:59 Ice Warning 25.2F - 32F 90 0% - 100% 2 mhos 0 None None - -
12/18/2014 08:59 Ice Warning 25.2F - 32F 90 0% - 100% 2 mhos 0 None None - -
12/18/2014 08:49 Ice Warning 24.1F - 32F 95 0% - 100% 2 mhos 0 None None - -
12/18/2014 08:44 Ice Warning 23.7F - 32F 95 0% - 100% 2 mhos 0 None None - -
Date/Time
(MST)
Sf
Temp Chem Water Layer Surface Precipitation
Sf Sub Frz Factor Pct Depth IcePct Cond Salin Type Intens Accum Rate
12/18/2014 08:39 Ice Warning 23.5F - 32F 95 0% - 100% 2 mhos 0 None None - -
12/18/2014 08:29 Ice Warning 23.4F - 32F 95 0% - 100% 2 mhos 0 None None - -
12/18/2014 08:24 Ice Warning 23.2F - 32F 95 0% - 100% 2 mhos 0 None None - -
12/18/2014 08:19 Ice Warning 23.2F - 32F 95 0% - 100% 2 mhos 0 None None - -
12/18/2014 08:13 Ice Warning 23.0F - 32F 95 0% - 100% 2 mhos 0 None None - -
12/18/2014 08:09 Ice Warning 23.0F - 32F 95 0% - 100% 2 mhos 0 None None - -
12/18/2014 07:59 Ice Warning 23.4F - 32F 95 0% - 100% 2 mhos 0 None None - -
12/18/2014 07:55 Ice Warning 23.4F - 32F 95 0% - 100% 2 mhos 0 None None - -
12/18/2014 07:49 Ice Warning 23.5F - 32F 85 0% - 100% 2 mhos 0 None None - -
12/18/2014 07:42 Ice Warning 23.9F - 32F 90 0% - 100% 2 mhos 0 None None - -
12/18/2014 07:39 Ice Warning 24.1F - 32F 95 0% - 100% 2 mhos 0 None None - -
12/18/2014 07:29 Ice Warning 24.1F - 32F 95 0% - 100% 2 mhos 0 None None - -
12/18/2014 07:19 Ice Warning 23.9F - 32F 95 0% - 100% 2 mhos 0 None None - -
12/18/2014 07:09 Ice Warning 24.1F - 32F 95 0% - 100% 2 mhos 0 None None - -
12/18/2014 06:59 Ice Warning 23.5F - 32F 95 0% - 100% 2 mhos 0 None None - -
Date/Time
(MST)
Sf
Temp Chem Water Layer Surface Precipitation
Sf Sub Frz Factor Pct Depth IcePct Cond Salin Type Intens Accum Rate
12/18/2014 06:59 Ice Warning 23.5F - 32F 95 0% - 100% 2 mhos 0 None None - -
12/18/2014 06:49 Ice Warning 23.2F - 32F 95 0% - 100% 2 mhos 0 None None - -
12/18/2014 06:45 Ice Warning 23.2F - 32F 95 0% - 100% 2 mhos 0 None None - -
12/18/2014 06:39 Ice Warning 23.4F - 32F 95 0% - 100% 2 mhos 0 None None - -
12/18/2014 06:30 Ice Warning 23.5F - 32F 95 0% - 100% 2 mhos 0 None None - -
12/18/2014 06:29 Ice Warning 23.5F - 32F 95 0% - 100% 2 mhos 0 None None - -
12/18/2014 06:19 Ice Warning 23.7F - 32F 95 0% - 100% 2 mhos 0 None None - -
12/18/2014 06:16 Ice Warning 23.7F - 32F 95 0% - 100% 2 mhos 0 None None - -
12/18/2014 06:09 Ice Warning 23.5F - 32F 95 0% - 100% 2 mhos 0 None None - -
12/18/2014 05:59 Ice Warning 22.8F - 32F 90 0% - 100% 2 mhos 0 None None - -
12/18/2014 05:53 Ice Warning 22.5F - 32F 85 0% - 100% 2 mhos 0 None None - -
12/18/2014 05:49 Ice Warning 22.3F - 32F 90 0% - 100% 2 mhos 0 None None - -
12/18/2014 05:46 Ice Warning 22.3F - 32F 90 0% - 100% 2 mhos 0 None None - -
12/18/2014 05:39 Ice Warning 22.5F - 32F 95 0% - 100% 2 mhos 0 None None - -
12/18/2014 05:28 Ice Warning 22.5F - 32F 95 0% - 100% 2 mhos 0 None None - -
Date/Time
(MST)
Sf
Temp Chem Water Layer Surface Precipitation
Sf Sub Frz Factor Pct Depth IcePct Cond Salin Type Intens Accum Rate
12/18/2014 05:24 Ice Warning 22.5F - 32F 95 0% - 100% 2 mhos 0 None None - -
12/18/2014 05:18 Ice Warning 22.3F - 32F 95 0% - 100% 2 mhos 0 None None - -
12/18/2014 05:15 Ice Warning 22.3F - 32F 95 0% - 100% 2 mhos 0 None None - -
12/18/2014 05:08 Ice Warning 22.3F - 32F 95 0% - 100% 2 mhos 0 None None - -
12/18/2014 05:00 Ice Warning 22.6F - 32F 95 0% - 100% 2 mhos 0 None None - -
12/18/2014 04:58 Ice Warning 22.6F - 32F 95 0% - 100% 2 mhos 0 None None - -
12/18/2014 04:48 Ice Warning 23.0F - 32F 95 0% - 100% 2 mhos 0 None None - -
12/18/2014 04:43 Ice Warning 23.0F - 32F 95 0% - 100% 2 mhos 0 None None - -
12/18/2014 04:38 Ice Warning 23.0F - 32F 95 0% - 100% 2 mhos 0 None None - -
12/18/2014 04:28 Ice Warning 22.5F - 32F 95 0% - 100% 2 mhos 0 None None - -
12/18/2014 04:18 Ice Warning 22.8F - 32F 95 0% - 100% 2 mhos 0 None None - -
12/18/2014 04:15 Ice Warning 23.0F - 32F 95 0% - 100% 2 mhos 0 None None - -
12/18/2014 04:08 Ice Warning 23.5F - 32F 95 0% - 100% 2 mhos 0 None None - -
12/18/2014 04:00 Ice Warning 23.4F - 32F 95 0% - 100% 2 mhos 0 None None - -
12/18/2014 03:58 Ice Warning 23.5F - 32F 95 0% - 100% 2 mhos 0 None None - -
Date/Time
(MST)
Sf
Temp Chem Water Layer Surface Precipitation
Sf Sub Frz Factor Pct Depth IcePct Cond Salin Type Intens Accum Rate
12/18/2014 03:48 Ice Warning 23.7F - 32F 95 0% - 100% 2 mhos 0 None None - -
Change End Date:
Copyright © 1998-2005 Surface Systems, Inc.
All Rights Reserved
Send comments about the data to:
SCAN Web ® is a registered trademark of Surface Systems, Inc.
SCAN Web Version 5.6